Wind_Speed
12 13 14 15 14 14 14 14 14 15 14 14 14 12 9 8 5 3 2 0 1 1 2 1 2 3 3 2 5 4 7 6 4 16 16 13 9 6 6 6 5 4 7 8 8
12 12 13 13 12 11 11 11 12 12 12 13 13 13 13 12 9 4 1 3 4 4 3 2 0 1 4 3 2 5 6 8 9 13 19 17 12 9 8 7 5 4 7 9 8
9 9 8 9 9 10 11 11 11 11 12 13 13 13 13 13 10 8 5 2 6 7 6 4 3 2 1 1 2 7 3 6 7 4 7 21 15 11 10 8 5 5 6 8 8
6 5 4 6 7 8 9 9 10 11 12 13 13 13 13 12 10 10 7 4 4 7 7 5 5 4 2 2 3 3 0 3 2 2 11 12 14 11 11 10 8 6 6 7 9
4 4 4 5 5 6 7 7 8 9 12 14 14 15 14 14 12 10 8 5 3 5 7 6 6 5 5 5 2 3 1 1 4 5 13 19 18 12 12 10 8 6 8 6 9
3 4 4 5 5 4 5 7 7 9 12 14 16 15 16 16 13 12 10 6 4 4 6 8 7 8 8 8 7 3 1 2 3 3 5 22 20 17 14 12 7 6 7 7 8
1 1 3 4 4 4 6 6 6 8 11 14 17 18 17 16 15 14 12 8 5 5 7 9 8 10 10 9 10 8 3 2 2 5 5 6 17 15 13 10 8 6 11 9 9
5 6 6 7 8 8 8 9 9 10 10 12 14 18 18 18 17 15 12 9 6 5 10 13 11 11 12 12 10 9 6 2 3 4 7 5 13 9 9 9 11 9 11 10 9
10 11 11 11 13 14 13 13 12 13 12 12 12 16 19 20 18 15 11 9 6 5 9 14 15 13 13 12 8 10 9 8 5 3 5 6 6 10 12 16 12 12 11 12 10
9 10 11 13 14 15 16 16 16 14 14 13 12 15 18 20 19 14 10 9 6 6 11 13 16 16 16 13 11 18 11 10 7 6 5 6 5 7 11 14 11 10 10 13 9
12 13 13 13 14 16 16 16 16 15 15 16 15 13 16 19 20 16 12 9 7 8 11 13 16 17 17 21 26 19 19 14 8 7 9 9 8 3 6 11 12 11 13 10 10
18 18 18 16 16 18 17 17 16 16 16 16 15 14 16 18 19 19 16 9 7 9 12 15 17 20 21 20 20 19 17 14 12 7 9 9 6 5 5 7 4 7 15 9 9
23 23 22 21 18 19 19 18 17 17 17 16 15 15 17 17 19 20 17 9 7 9 14 16 20 21 23 23 21 19 18 17 16 13 8 8 7 6 4 5 4 3 4 10 13
24 24 21 20 18 18 20 19 18 17 18 18 16 18 15 17 19 19 15 9 9 12 15 18 21 22 24 24 21 12 18 21 19 15 7 13 5 10 10 9 8 6 6 8 10
24 25 24 23 21 21 22 21 20 21 21 21 19 17 18 17 18 18 14 10 9 11 12 17 18 21 20 18 16 16 21 19 19 17 15 14 13 15 12 12 13 11 9 10 10
29 30 30 30 29 28 28 27 25 25 26 26 25 22 19 19 18 17 13 10 9 10 13 14 15 15 17 20 18 19 18 18 18 10 9 18 15 16 19 18 17 15 13 12 12
23 26 27 25 23 23 24 27 28 27 27 29 27 25 22 20 17 16 13 10 8 9 11 12 14 15 15 16 15 16 12 6 6 11 13 18 17 19 20 18 19 19 18 18 19
28 24 24 25 25 26 27 24 22 23 25 26 27 26 22 20 17 15 11 9 6 8 11 10 10 15 14 13 10 12 14 11 8 10 14 24 18 16 21 21 23 24 24 22 19
23 23 22 23 21 21 21 22 20 22 24 23 24 25 24 20 17 16 10 9 7 6 11 9 11 9 10 13 13 13 15 16 12 19 18 13 16 18 21 20 21 21 21 20 18
22 21 20 21 21 22 21 20 21 23 24 24 23 24 23 24 19 16 12 8 7 8 10 11 8 9 8 8 10 12 12 12 14 16 15 14 15 13 17 19 18 16 15 14 14
21 21 20 21 21 21 22 24 24 25 26 27 25 24 26 26 21 17 13 10 10 12 10 9 10 10 10 9 11 11 12 12 15 17 16 14 13 18 15 13 13 15 17 18 16
23 22 23 23 23 24 24 25 24 27 27 29 28 26 27 28 25 21 15 11 12 15 15 14 9 8 9 14 16 14 10 10 7 13 11 16 14 14 16 13 13 14 13 15 18
27 26 27 27 26 25 24 26 26 27 29 30 31 29 30 30 28 26 20 17 14 15 17 16 16 14 13 15 19 18 13 10 12 15 12 11 12 14 18 19 17 16 17 17 19
32 31 30 31 29 29 27 29 29 30 31 31 31 33 32 31 32 30 24 24 20 17 17 19 15 18 12 12 13 17 19 16 14 11 13 15 16 16 16 18 17 17 19 20 20
32 32 32 31 30 30 30 31 32 34 34 34 35 36 37 34 35 33 30 28 27 21 19 23 21 20 20 20 20 14 15 19 19 15 17 17 19 22 18 17 17 15 16 17 17
33 33 33 33 34 34 34 34 33 36 35 38 40 42 41 38 38 40 42 34 31 29 25 22 21 27 22 22 20 19 21 21 19 17 19 23 22 22 18 19 17 17 17 17 14
35 34 36 37 37 37 38 37 37 36 38 40 42 41 43 41 47 45 40 39 38 32 29 26 24 23 20 26 22 26 23 21 21 21 19 20 20 18 19 19 19 17 16 16 17
Wind_Direction
84 86 85 81 74 69 66 62 58 53 50 48 45 43 38 26 360 300 268 216 231 251 260 312 43 40 37 57 39 46 67 76 242 211 203 187 188 157 138 137 137 138 151 157 143
86 84 80 73 67 58 53 48 47 45 41 37 34 32 29 30 27 22 340 226 228 242 258 268 180 303 91 49 335 12 28 23 32 201 202 193 177 165 136 157 132 151 147 154 163
82 81 73 56 49 46 48 46 44 42 37 32 28 22 19 19 17 8 10 263 232 239 244 256 238 244 180 351 27 320 27 37 42 96 154 189 169 166 150 166 147 158 150 152 158
83 72 53 35 41 40 34 33 36 28 25 21 18 14 9 9 8 355 3 342 259 241 240 247 246 226 234 232 340 334 259 37 346 214 174 183 178 161 163 166 154 160 137 154 165
72 61 40 28 27 24 27 30 20 16 16 10 5 360 358 358 354 348 346 341 287 248 227 235 229 219 216 212 214 96 84 340 303 276 213 192 175 166 161 162 149 158 155 160 162
63 44 20 8 5 5 2 5 12 14 17 14 5 355 350 347 343 337 334 330 296 242 210 216 219 212 217 221 199 194 303 318 317 347 218 183 169 167 177 167 143 155 164 156 160
217 313 319 321 318 318 330 340 348 349 350 354 360 359 348 341 337 330 322 319 302 252 199 204 228 210 212 218 207 206 251 297 180 100 61 116 166 174 195 195 196 167 163 168 151
282 275 276 287 289 286 289 298 308 315 323 328 345 352 353 348 339 329 316 303 286 260 208 202 210 215 209 214 219 221 191 137 172 161 129 118 161 166 180 205 187 179 178 183 160
292 292 289 288 285 284 287 290 289 292 298 311 331 345 351 346 341 329 317 305 287 245 220 209 209 212 213 211 220 205 197 191 175 189 171 147 195 225 203 197 190 182 176 181 174
310 304 300 298 294 290 289 288 291 287 284 292 310 327 340 344 347 338 322 304 279 235 224 212 211 213 211 200 201 216 229 204 183 196 190 202 214 249 189 201 189 185 176 179 187
310 308 306 306 305 300 298 297 297 294 288 287 297 310 327 334 342 340 325 303 259 230 229 214 212 211 210 206 210 212 216 216 205 211 203 219 208 193 219 229 188 197 193 182 195
300 301 302 304 306 303 301 300 298 295 294 290 289 296 311 322 334 340 331 305 258 237 230 220 213 212 216 224 217 207 207 211 214 188 189 189 205 190 157 175 207 193 186 192 200
294 293 293 292 297 297 296 296 296 296 295 295 293 293 304 315 327 335 332 310 271 247 234 227 217 218 212 216 219 214 209 218 220 213 204 208 215 223 221 228 228 231 215 222 232
288 288 287 286 288 287 288 291 293 292 292 291 290 298 303 313 322 331 331 311 284 252 242 234 228 220 215 213 218 207 213 219 222 223 232 217 191 231 228 233 247 249 239 234 253
284 285 283 283 282 280 282 284 285 286 288 290 293 294 304 308 316 322 325 306 287 261 237 235 231 228 222 219 216 192 214 213 219 226 231 222 212 247 229 233 230 235 246 253 260
285 284 283 281 279 276 275 275 277 279 280 284 288 292 296 301 307 311 317 300 281 251 234 236 230 227 220 219 210 200 204 221 224 217 243 248 210 273 235 235 235 241 244 253 251
286 289 286 282 281 275 279 272 268 274 280 279 282 287 291 295 300 305 312 306 280 256 242 233 219 216 215 215 215 209 213 226 226 241 229 243 239 238 251 248 251 253 260 258 257
286 287 287 281 282 277 271 270 271 280 271 272 275 280 283 288 292 297 305 306 278 245 234 217 230 229 212 196 222 217 196 205 244 234 245 263 245 246 239 247 253 255 261 264 259
286 289 288 284 281 280 277 273 272 265 268 267 266 270 274 275 276 284 291 303 279 241 190 202 203 226 220 215 186 225 212 213 230 246 225 248 260 249 255 254 257 259 259 262 263
291 289 288 285 283 280 279 278 270 261 261 260 254 259 260 267 267 272 280 282 261 222 199 194 198 205 200 201 203 195 221 232 234 229 240 256 256 233 245 250 251 255 257 259 253
293 289 289 287 286 285 279 272 265 260 256 256 252 249 247 251 258 257 263 268 259 232 216 210 200 238 220 232 240 242 254 243 218 223 233 248 260 251 243 245 253 256 258 260 258
290 288 286 285 283 281 279 275 269 262 258 256 253 242 243 247 248 243 241 245 247 234 232 221 212 253 235 236 233 229 214 235 213 289 247 216 226 242 244 241 256 260 257 265 265
288 286 286 286 284 284 281 273 266 261 256 253 254 251 243 240 241 244 232 235 240 236 240 220 215 225 253 255 234 234 230 219 224 226 237 239 264 244 250 249 259 260 251 267 274
290 288 286 285 283 280 277 271 266 259 255 253 249 250 247 240 240 241 232 228 232 231 240 234 214 226 229 245 236 233 236 237 237 243 259 259 245 245 252 255 267 268 263 267 268
290 288 287 286 284 282 278 273 263 259 254 251 246 244 243 237 239 238 239 230 227 230 232 237 234 230 222 229 237 228 234 242 233 240 248 241 244 250 256 265 268 276 263 261 262
295 293 292 292 289 286 280 272 267 262 256 251 246 241 241 236 233 233 230 231 228 228 231 227 231 238 234 232 239 246 244 241 242 249 251 247 247 256 259 262 268 269 266 259 263
296 292 292 289 285 280 276 272 267 263 256 249 248 243 241 236 233 231 234 236 236 232 231 233 234 242 236 252 247 248 255 253 246 246 246 248 252 258 260 259 262 263 260 256 266
Height
5889 5889 5889 5888 5889 5889 5888 5888 5888 5887 5887 5886 5886 5886 5885 5885 5885 5885 5886 5887 5886 5886 5886 5886 5886 5887 5887 5887 5887 5887 5887 5886 5884 5884 5885 5887 5889 5889 5889 5889 5889 5889 5889 5889 5889
5891 5891 5890 5890 5890 5890 5890 5889 5889 5889 5888 5887 5887 5886 5885 5885 5884 5884 5885 5885 5885 5885 5885 5885 5886 5886 5887 5887 5886 5886 5885 5884 5881 5878 5882 5885 5887 5888 5889 5889 5889 5889 5889 5889 5890
5892 5892 5892 5892 5892 5891 5891 5890 5890 5889 5889 5888 5887 5886 5885 5885 5884 5884 5884 5884 5884 5884 5884 5885 5885 5886 5886 5886 5886 5885 5885 5884 5883 5881 5881 5883 5886 5887 5887 5888 5890 5890 5889 5889 5891
5893 5893 5893 5893 5892 5892 5891 5891 5890 5890 5889 5888 5887 5886 5885 5885 5885 5883 5883 5883 5883 5882 5883 5884 5884 5885 5886 5886 5886 5885 5884 5884 5884 5883 5882 5883 5885 5886 5887 5888 5889 5890 5890 5889 5890
5893 5893 5893 5893 5892 5892 5892 5891 5891 5890 5889 5888 5887 5886 5885 5884 5883 5881 5881 5881 5881 5881 5882 5883 5883 5884 5885 5885 5886 5885 5884 5884 5883 5882 5881 5881 5883 5886 5887 5888 5888 5890 5889 5890 5890
5893 5894 5893 5893 5893 5892 5892 5891 5891 5890 5889 5888 5886 5885 5884 5883 5881 5880 5879 5879 5879 5880 5880 5881 5881 5882 5883 5884 5885 5885 5885 5884 5883 5881 5876 5879 5880 5883 5886 5888 5888 5889 5889 5890 5891
5893 5893 5893 5892 5892 5892 5891 5891 5890 5890 5889 5887 5886 5884 5883 5882 5879 5878 5877 5877 5877 5877 5879 5880 5879 5881 5882 5882 5884 5885 5885 5885 5884 5883 5880 5880 5883 5884 5885 5886 5888 5888 5889 5890 5890
5892 5892 5891 5891 5890 5890 5890 5889 5889 5888 5887 5886 5885 5883 5882 5879 5877 5875 5874 5874 5874 5874 5876 5877 5877 5878 5880 5881 5883 5884 5885 5885 5885 5884 5883 5882 5883 5885 5885 5885 5886 5887 5889 5890 5890
5890 5890 5889 5888 5888 5887 5887 5887 5886 5886 5885 5884 5883 5881 5880 5877 5875 5873 5871 5871 5871 5872 5872 5874 5876 5876 5878 5880 5884 5884 5884 5885 5885 5885 5884 5884 5883 5884 5885 5885 5886 5887 5888 5890 5891
5888 5887 5887 5886 5884 5884 5883 5883 5883 5883 5882 5881 5881 5880 5878 5876 5873 5870 5869 5868 5869 5869 5870 5872 5874 5875 5876 5880 5884 5883 5885 5884 5885 5886 5885 5884 5884 5883 5884 5885 5886 5887 5888 5889 5890
5885 5885 5884 5883 5881 5880 5880 5880 5881 5880 5879 5878 5878 5876 5875 5873 5871 5868 5867 5866 5865 5866 5866 5868 5870 5872 5873 5876 5877 5880 5881 5882 5883 5885 5886 5886 5885 5884 5884 5884 5885 5887 5888 5888 5890
5882 5881 5880 5880 5879 5877 5876 5876 5875 5875 5875 5874 5874 5873 5872 5870 5868 5865 5863 5863 5862 5862 5863 5865 5866 5867 5869 5871 5874 5877 5879 5880 5882 5884 5885 5885 5886 5885 5885 5885 5886 5886 5888 5888 5889
5877 5877 5876 5876 5875 5873 5872 5872 5871 5870 5870 5870 5869 5869 5868 5867 5865 5862 5860 5858 5858 5858 5859 5860 5862 5863 5865 5868 5871 5875 5877 5877 5879 5882 5884 5886 5886 5886 5886 5886 5885 5886 5887 5888 5889
5872 5871 5871 5871 5871 5869 5867 5867 5866 5866 5866 5866 5865 5865 5864 5862 5861 5859 5856 5856 5855 5855 5855 5856 5857 5859 5862 5864 5868 5875 5875 5875 5877 5880 5886 5885 5886 5885 5886 5886 5885 5886 5887 5887 5887
5867 5865 5865 5865 5865 5864 5863 5862 5862 5861 5861 5861 5860 5860 5860 5859 5858 5855 5853 5851 5852 5852 5854 5854 5854 5856 5860 5864 5866 5870 5870 5872 5874 5876 5880 5883 5887 5882 5883 5884 5885 5886 5886 5886 5886
5860 5858 5857 5857 5857 5858 5857 5857 5857 5858 5855 5854 5854 5855 5855 5854 5854 5852 5850 5849 5849 5849 5849 5850 5852 5854 5857 5859 5862 5865 5868 5870 5872 5878 5881 5879 5882 5881 5881 5881 5883 5884 5885 5885 5885
5852 5852 5849 5849 5850 5849 5849 5849 5851 5851 5851 5848 5849 5849 5849 5849 5849 5849 5848 5846 5846 5847 5848 5849 5850 5851 5853 5857 5860 5863 5867 5874 5877 5879 5881 5874 5878 5880 5876 5877 5879 5880 5881 5882 5882
5845 5845 5843 5842 5842 5842 5842 5844 5845 5846 5843 5843 5843 5843 5844 5845 5845 5845 5845 5844 5843 5844 5846 5848 5850 5849 5851 5855 5858 5860 5868 5874 5874 5876 5878 5871 5872 5875 5872 5873 5873 5874 5874 5876 5877
5838 5838 5837 5836 5836 5836 5837 5837 5838 5838 5838 5838 5838 5838 5839 5840 5842 5841 5842 5843 5842 5842 5845 5847 5851 5849 5850 5852 5858 5859 5860 5868 5868 5870 5871 5873 5869 5868 5867 5867 5868 5869 5869 5871 5873
5831 5832 5832 5830 5830 5830 5831 5832 5831 5830 5830 5831 5833 5834 5835 5835 5837 5838 5839 5840 5841 5841 5842 5845 5848 5847 5848 5850 5853 5855 5861 5863 5864 5866 5868 5869 5865 5866 5863 5862 5863 5864 5865 5866 5868
5826 5825 5825 5824 5824 5824 5824 5823 5823 5823 5823 5824 5826 5828 5830 5831 5833 5834 5837 5838 5839 5840 5840 5843 5847 5847 5847 5848 5853 5851 5853 5855 5859 5861 5863 5865 5867 5860 5860 5860 5859 5860 5860 5861 5862
5819 5819 5817 5817 5818 5816 5816 5816 5816 5815 5816 5817 5819 5821 5823 5824 5827 5830 5833 5836 5836 5837 5838 5840 5845 5847 5847 5845 5848 5849 5853 5853 5856 5858 5855 5856 5860 5856 5856 5856 5856 5856 5857 5856 5857
5811 5810 5810 5809 5808 5808 5807 5806 5807 5807 5808 5809 5811 5814 5815 5818 5821 5824 5828 5830 5832 5834 5836 5837 5839 5845 5843 5843 5843 5845 5847 5848 5851 5852 5853 5854 5859 5852 5851 5852 5851 5852 5853 5853 5851
5802 5801 5801 5799 5799 5798 5798 5797 5798 5798 5798 5800 5803 5804 5807 5810 5813 5817 5822 5824 5826 5830 5830 5833 5837 5840 5845 5845 5844 5841 5842 5843 5845 5850 5853 5851 5850 5847 5847 5847 5847 5847 5847 5847 5845
5793 5791 5789 5788 5788 5787 5787 5788 5788 5788 5790 5791 5792 5794 5796 5801 5805 5808 5814 5817 5820 5823 5826 5828 5832 5835 5837 5836 5837 5839 5841 5839 5839 5841 5843 5846 5843 5841 5842 5841 5842 5842 5841 5840 5840
5782 5780 5778 5777 5777 5776 5776 5775 5776 5776 5779 5780 5782 5781 5785 5789 5795 5797 5798 5807 5812 5816 5819 5823 5827 5828 5830 5830 5831 5832 5832 5833 5834 5836 5836 5836 5837 5836 5837 5836 5837 5837 5836 5836 5836
5771 5769 5766 5765 5763 5763 5763 5764 5763 5764 5765 5766 5768 5772 5774 5779 5777 5784 5791 5798 5803 5807 5811 5816 5820 5821 5826 5824 5825 5825 5828 5829 5829 5829 5830 5831 5832 5832 5831 5831 5832 5832 5832 5831 5831